Location: Arborea
(39.7744°N, 8.5819°E)
Time: 13:13:57
(UTC+00:00)

Cosmos 332 Rocket - Pass Details

Date: 01 June 2022
Orbit: 681 x 703 km, 74.0° (Epoch: 03 July)

Event Time Altitude Azimuth Distance (km) Brightness Sun altitude
Exits shadow 22:32:44 25° 69° (ENE) 1,356 5.3 -26.9°
Drops below altitude 10° 22:35:26 10° 40° (NE) 2,128 6.7 -27.1°
Sets 22:37:57 0° 30° (NNE) 3,048 7.8 -27.2°
